Time,TemperatureF,DewpointF,PressureIn,WindDirection,WindDirectionDegrees,WindSpeedMPH,WindSpeedGustMPH,Humidity,HourlyPrecipIn,Conditions,Clouds,dailyrainin,SoftwareType,DateUTC
2013-08-30 00:12:00,77.0,-99.9,-100.00,South,170,0.0,1.0,-999,0.00,,,0.00,,2013-08-30 05:12:00,
2013-08-30 00:23:00,77.0,-99.9,-100.00,South,170,0.0,1.0,-999,0.00,,,0.00,,2013-08-30 05:23:00,
2013-08-30 00:42:00,76.0,-99.9,-100.00,SSW,199,0.0,1.0,-999,0.00,,,0.00,,2013-08-30 05:42:00,
2013-08-30 00:52:00,76.0,-99.9,-100.00,SSW,199,0.0,1.0,-999,0.00,,,0.00,,2013-08-30 05:52:00,
2013-08-30 01:12:00,75.0,-99.9,-100.00,South,171,1.0,4.0,-999,0.00,,,0.00,,2013-08-30 06:12:00,
2013-08-30 01:22:00,75.0,-99.9,-100.00,South,171,1.0,4.0,-999,0.00,,,0.00,,2013-08-30 06:22:00,
2013-08-30 01:42:00,75.0,-99.9,-100.00,SSE,157,2.0,4.0,-999,0.00,,,0.00,,2013-08-30 06:42:00,
2013-08-30 01:53:00,75.0,-99.9,-100.00,SSE,157,2.0,4.0,-999,0.00,,,0.00,,2013-08-30 06:53:00,
2013-08-30 02:12:00,75.0,-99.9,-100.00,SSE,150,1.0,4.0,-999,0.00,,,0.00,,2013-08-30 07:12:00,
2013-08-30 02:22:00,75.0,-99.9,-100.00,SSE,150,1.0,4.0,-999,0.00,,,0.00,,2013-08-30 07:22:00,
2013-08-30 02:44:00,74.0,-99.9,-100.00,South,185,0.0,2.0,-999,0.00,,,0.00,,2013-08-30 07:44:00,
2013-08-30 02:53:00,74.0,-99.9,-100.00,South,185,0.0,2.0,-999,0.00,,,0.00,,2013-08-30 07:53:00,
2013-08-30 03:12:00,75.0,-99.9,-100.00,ENE,66,2.0,3.0,-999,0.00,,,0.00,,2013-08-30 08:12:00,
2013-08-30 03:23:00,75.0,-99.9,-100.00,ENE,66,2.0,3.0,-999,0.00,,,0.00,,2013-08-30 08:23:00,
2013-08-30 03:43:00,74.0,-99.9,-100.00,South,174,1.0,3.0,-999,0.00,,,0.00,,2013-08-30 08:43:00,
2013-08-30 03:52:00,74.0,-99.9,-100.00,South,174,1.0,3.0,-999,0.00,,,0.00,,2013-08-30 08:52:00,
2013-08-30 04:12:00,74.0,-99.9,-100.00,SSW,209,1.0,2.0,-999,0.00,,,0.00,,2013-08-30 09:12:00,
2013-08-30 04:22:00,74.0,-99.9,-100.00,SSW,209,1.0,2.0,-999,0.00,,,0.00,,2013-08-30 09:22:00,
2013-08-30 04:44:00,73.0,-99.9,-100.00,SW,219,1.0,2.0,-999,0.00,,,0.00,,2013-08-30 09:44:00,
2013-08-30 04:53:00,73.0,-99.9,-100.00,SW,219,1.0,2.0,-999,0.00,,,0.00,,2013-08-30 09:53:00,
2013-08-30 05:13:00,73.0,-99.9,-100.00,SSW,196,0.0,2.0,-999,0.00,,,0.00,,2013-08-30 10:13:00,
2013-08-30 05:23:00,73.0,-99.9,-100.00,SSW,196,0.0,2.0,-999,0.00,,,0.00,,2013-08-30 10:23:00,
2013-08-30 05:43:00,73.0,-99.9,-100.00,SW,214,1.0,2.0,-999,0.00,,,0.00,,2013-08-30 10:43:00,
2013-08-30 05:53:00,73.0,-99.9,-100.00,SW,214,1.0,2.0,-999,0.00,,,0.00,,2013-08-30 10:53:00,
2013-08-30 06:12:00,73.0,-99.9,-100.00,SSE,164,0.0,2.0,-999,0.00,,,0.00,,2013-08-30 11:12:00,
2013-08-30 06:23:00,73.0,-99.9,-100.00,SSE,164,0.0,2.0,-999,0.00,,,0.00,,2013-08-30 11:23:00,
2013-08-30 06:42:00,72.0,-99.9,-100.00,SW,222,1.0,2.0,-999,0.00,,,0.00,,2013-08-30 11:42:00,
2013-08-30 06:52:00,72.0,-99.9,-100.00,SW,222,1.0,2.0,-999,0.00,,,0.00,,2013-08-30 11:52:00,
2013-08-30 07:12:00,71.0,-99.9,-100.00,SW,222,1.0,2.0,-999,0.00,,,0.00,,2013-08-30 12:12:00,
2013-08-30 07:22:00,71.0,-99.9,-100.00,SW,222,1.0,2.0,-999,0.00,,,0.00,,2013-08-30 12:22:00,
2013-08-30 07:42:00,72.0,-99.9,-100.00,SW,225,1.0,2.0,-999,0.00,,,0.00,,2013-08-30 12:42:00,
2013-08-30 07:52:00,72.0,-99.9,-100.00,SW,225,1.0,2.0,-999,0.00,,,0.00,,2013-08-30 12:52:00,
2013-08-30 08:11:00,73.0,-99.9,-100.00,SSE,149,1.0,2.0,-999,0.00,,,0.00,,2013-08-30 13:11:00,
2013-08-30 08:22:00,73.0,-99.9,-100.00,SSE,149,1.0,2.0,-999,0.00,,,0.00,,2013-08-30 13:22:00,
2013-08-30 08:42:00,74.0,-99.9,-100.00,South,190,0.0,1.0,-999,0.00,,,0.00,,2013-08-30 13:42:00,
2013-08-30 08:52:00,74.0,-99.9,-100.00,South,190,0.0,1.0,-999,0.00,,,0.00,,2013-08-30 13:52:00,
2013-08-30 09:11:00,76.0,-99.9,-100.00,South,170,1.0,4.0,-999,0.00,,,0.00,,2013-08-30 14:11:00,
2013-08-30 09:22:00,76.0,-99.9,-100.00,South,170,1.0,4.0,-999,0.00,,,0.00,,2013-08-30 14:22:00,
2013-08-30 09:42:00,78.0,-99.9,-100.00,South,171,1.0,3.0,-999,0.00,,,0.00,,2013-08-30 14:42:00,
2013-08-30 09:52:00,78.0,-99.9,-100.00,South,171,1.0,3.0,-999,0.00,,,0.00,,2013-08-30 14:52:00,
2013-08-30 10:11:00,82.0,-99.9,-100.00,South,178,1.0,3.0,-999,0.00,,,0.00,,2013-08-30 15:11:00,
2013-08-30 10:22:00,82.0,-99.9,-100.00,South,178,1.0,3.0,-999,0.00,,,0.00,,2013-08-30 15:22:00,
2013-08-30 10:44:00,86.0,-99.9,-100.00,SSE,158,1.0,4.0,-999,0.00,,,0.00,,2013-08-30 15:44:00,
2013-08-30 10:55:00,86.0,-99.9,-100.00,SSE,158,1.0,4.0,-999,0.00,,,0.00,,2013-08-30 15:55:00,
2013-08-30 11:14:00,86.0,-99.9,-100.00,SSW,208,1.0,7.0,-999,0.00,,,0.00,,2013-08-30 16:14:00,
2013-08-30 11:25:00,86.0,-99.9,-100.00,SSW,208,1.0,7.0,-999,0.00,,,0.00,,2013-08-30 16:25:00,
2013-08-30 11:43:00,89.0,-99.9,-100.00,SSE,150,1.0,5.0,-999,0.00,,,0.00,,2013-08-30 16:43:00,
2013-08-30 11:53:00,89.0,-99.9,-100.00,SSE,150,1.0,5.0,-999,0.00,,,0.00,,2013-08-30 16:53:00,
2013-08-30 12:13:00,90.0,-99.9,-100.00,SSE,150,1.0,4.0,-999,0.00,,,0.00,,2013-08-30 17:13:00,
2013-08-30 12:23:00,90.0,-99.9,-100.00,SSE,150,1.0,4.0,-999,0.00,,,0.00,,2013-08-30 17:23:00,
2013-08-30 12:42:00,91.0,-99.9,-100.00,WSW,237,3.0,7.0,-999,0.00,,,0.00,,2013-08-30 17:42:00,
2013-08-30 12:53:00,91.0,-99.9,-100.00,WSW,237,3.0,7.0,-999,0.00,,,0.00,,2013-08-30 17:53:00,
2013-08-30 13:12:00,93.0,-99.9,-100.00,South,176,2.0,5.0,-999,0.00,,,0.00,,2013-08-30 18:12:00,
2013-08-30 13:22:00,93.0,-99.9,-100.00,South,176,2.0,5.0,-999,0.00,,,0.00,,2013-08-30 18:22:00,
2013-08-30 13:42:00,95.0,-99.9,-100.00,WSW,239,1.0,5.0,-999,0.00,,,0.00,,2013-08-30 18:42:00,
2013-08-30 13:52:00,95.0,-99.9,-100.00,WSW,239,1.0,5.0,-999,0.00,,,0.00,,2013-08-30 18:52:00,
2013-08-30 14:12:00,96.0,-99.9,-100.00,SW,223,1.0,5.0,-999,0.00,,,0.00,,2013-08-30 19:12:00,
2013-08-30 14:22:00,96.0,-99.9,-100.00,SW,223,1.0,5.0,-999,0.00,,,0.00,,2013-08-30 19:22:00,
2013-08-30 14:42:00,97.0,-99.9,-100.00,SW,229,2.0,4.0,-999,0.00,,,0.00,,2013-08-30 19:42:00,
2013-08-30 14:53:00,97.0,-99.9,-100.00,SW,229,2.0,4.0,-999,0.00,,,0.00,,2013-08-30 19:53:00,
2013-08-30 15:12:00,98.0,-99.9,-100.00,SW,215,3.0,8.0,-999,0.00,,,0.00,,2013-08-30 20:12:00,
2013-08-30 15:22:00,98.0,-99.9,-100.00,SW,215,3.0,8.0,-999,0.00,,,0.00,,2013-08-30 20:22:00,
2013-08-30 15:43:00,97.0,-99.9,-100.00,West,263,2.0,7.0,-999,0.00,,,0.00,,2013-08-30 20:43:00,
2013-08-30 15:52:00,97.0,-99.9,-100.00,West,263,2.0,7.0,-999,0.00,,,0.00,,2013-08-30 20:52:00,
2013-08-30 16:12:00,97.0,-99.9,-100.00,West,269,2.0,7.0,-999,0.00,,,0.00,,2013-08-30 21:12:00,
2013-08-30 16:22:00,97.0,-99.9,-100.00,West,269,2.0,7.0,-999,0.00,,,0.00,,2013-08-30 21:22:00,
2013-08-30 16:44:00,98.0,-99.9,-100.00,SW,230,2.0,6.0,-999,0.00,,,0.00,,2013-08-30 21:44:00,
2013-08-30 16:55:00,98.0,-99.9,-100.00,SW,230,2.0,6.0,-999,0.00,,,0.00,,2013-08-30 21:55:00,
2013-08-30 17:13:00,97.0,-99.9,-100.00,NW,307,1.0,5.0,-999,0.00,,,0.00,,2013-08-30 22:13:00,
2013-08-30 17:24:00,97.0,-99.9,-100.00,NW,307,1.0,5.0,-999,0.00,,,0.00,,2013-08-30 22:24:00,
2013-08-30 17:43:00,96.0,-99.9,-100.00,West,276,2.0,8.0,-999,0.00,,,0.00,,2013-08-30 22:43:00,
2013-08-30 17:54:00,96.0,-99.9,-100.00,West,276,2.0,8.0,-999,0.00,,,0.00,,2013-08-30 22:54:00,
2013-08-30 18:12:00,92.0,-99.9,-100.00,WNW,296,2.0,4.0,-999,0.00,,,0.00,,2013-08-30 23:12:00,
2013-08-30 18:22:00,92.0,-99.9,-100.00,WNW,296,2.0,4.0,-999,0.00,,,0.00,,2013-08-30 23:22:00,
2013-08-30 18:42:00,91.0,-99.9,-100.00,NNW,332,3.0,5.0,-999,0.00,,,0.00,,2013-08-30 23:42:00,
2013-08-30 18:53:00,91.0,-99.9,-100.00,NNW,332,3.0,5.0,-999,0.00,,,0.00,,2013-08-30 23:53:00,
2013-08-30 19:11:00,88.0,-99.9,-100.00,NNW,331,3.0,7.0,-999,0.00,,,0.00,,2013-08-31 00:11:00,
2013-08-30 19:22:00,88.0,-99.9,-100.00,NNW,331,3.0,7.0,-999,0.00,,,0.00,,2013-08-31 00:22:00,
2013-08-30 19:30:00,84.0,-99.9,-100.00,North,-999,5.0,6.0,-999,0.00,,,0.00,,2013-08-31 00:30:00,
2013-08-30 19:42:00,86.0,-99.9,-100.00,North,350,7.0,10.0,-999,0.00,,,0.00,,2013-08-31 00:42:00,
2013-08-30 19:52:00,86.0,-99.9,-100.00,North,350,7.0,10.0,-999,0.00,,,0.00,,2013-08-31 00:52:00,
2013-08-30 20:11:00,84.0,-99.9,-100.00,North,-999,5.0,6.0,-999,0.00,,,0.00,,2013-08-31 01:11:00,
2013-08-30 20:22:00,84.0,-99.9,-100.00,North,-999,5.0,6.0,-999,0.00,,,0.00,,2013-08-31 01:22:00,
2013-08-30 21:12:00,82.0,-99.9,-100.00,North,352,3.0,7.0,-999,0.00,,,0.00,,2013-08-31 02:12:00,
2013-08-30 21:22:00,82.0,-99.9,-100.00,North,352,3.0,7.0,-999,0.00,,,0.00,,2013-08-31 02:22:00,
2013-08-30 21:42:00,82.0,-99.9,-100.00,North,3,9.0,11.0,-999,0.00,,,0.00,,2013-08-31 02:42:00,
2013-08-30 21:52:00,82.0,-99.9,-100.00,North,3,9.0,11.0,-999,0.00,,,0.00,,2013-08-31 02:52:00,
2013-08-30 22:12:00,81.0,-99.9,-100.00,NE,36,3.0,8.0,-999,0.00,,,0.00,,2013-08-31 03:12:00,
2013-08-30 22:22:00,81.0,-99.9,-100.00,NE,36,3.0,8.0,-999,0.00,,,0.00,,2013-08-31 03:22:00,
2013-08-30 22:45:00,82.0,-99.9,-100.00,SE,130,1.0,3.0,-999,0.00,,,0.00,,2013-08-31 03:45:00,
2013-08-30 22:54:00,82.0,-99.9,-100.00,SE,130,1.0,3.0,-999,0.00,,,0.00,,2013-08-31 03:54:00,
2013-08-30 23:14:00,80.0,-99.9,-100.00,SSE,163,3.0,7.0,-999,0.00,,,0.00,,2013-08-31 04:14:00,
2013-08-30 23:24:00,80.0,-99.9,-100.00,SSE,163,3.0,7.0,-999,0.00,,,0.00,,2013-08-31 04:24:00,
2013-08-30 23:44:00,79.0,-99.9,-100.00,SSE,164,2.0,4.0,-999,0.00,,,0.00,,2013-08-31 04:44:00,
2013-08-30 23:54:00,79.0,-99.9,-100.00,SSE,164,2.0,4.0,-999,0.00,,,0.00,,2013-08-31 04:54:00,